Погода в Серебрянске

Казахстан     49°40′46″N   83°18′02″E
темп.,
°C
ветер,
м/с
пор.,
м/с
влажн.,
%
обл.,
%
осадки,
мм/ч
давл.,
гПа
погр.,
м
4 марта, чт
чт400:00−16вюв128836 0.0 103220
03:00−17вюв339220 0.0 103323
06:00−17вюв339739 0.0 103330
09:00−15вюв359755 0.0 1032156
12:00−11вюв468842 0.0 1030299
15:00−9вюв46840 0.0 1028271
18:00−14вюв34860 0.0 102836
21:00−15вюв448115 0.0 102840
5 марта, пт
пт500:00−15вюв447835 0.0 102856
03:00−14вюв568599 0.0 1024126
06:00−11вюв468799 0.1 1022154
09:00−10вюв3395100 3.9 1023129
12:00−7юв349298 4.9 1027280
15:00−5вюв3394100 0.9 1029265
18:00−7вюв239699 1.7 103260
21:00−9вюв239699 0.3 103532
6 марта, сб
сб600:00−11вюв339791 0.4 103529
03:00−11вюв339767 0.0 103537
06:00−12вюв339872 0.1 103535
09:00−9вюв349657 0.0 1033148
12:00−6вюв469161 0.1 1030287
15:00−5вюв458753 0.0 1026250
18:00−9вюв338534 0.0 102627
21:00−11вюв337936 0.0 102524
7 марта, вс
вс700:00−11вюв337518 0.0 102624
03:00−12вюв33740 0.0 102526
06:00−12вюв337616 0.0 102525
09:00−10вюв348139 0.0 102489
12:00−5вюв448135 0.0 1022160
15:00−4вюв3480100 0.0 1021146
18:00−7вюв3372100 0.0 102226
21:00−8вюв3370100 0.0 102328
8 марта, пн
пн800:00−8вюв337199 0.0 102429
03:00−9вюв336979 0.0 102324
06:00−9вюв347382 0.0 102437
09:00−7вюв447884 0.0 1023121
12:00−3вюв457992 0.0 1021223
15:00−2вюв3480100 0.0 1021203
18:00−3вюв3383100 0.0 102153
21:00−4вюв2282100 0.0 102424